Tracking 28790 objects as of 19-Apr-2024
HD Live streaming from Space Station
objects crossing your sky now

THORAD AGENA D DEB


10-day predictions


NORAD ID: 4741
Int'l Code: 1970-025CQ
Perigee: 1,076.6 km
Apogee: 2,349.4 km
Inclination: 100.3 °
Period: 120.6 minutes
Semi major axis: 8083 km
RCS: 0.0817 m2 (small)
Launch date: April 8, 1970
Source: United States (US)
Launch site: AIR FORCE WESTERN TEST RANGE (AFWTR)

Note: This is SATELLITE DEBRIS
Your satellite tracking list
Your tracking list is empty




NASA's NSSDC Master Catalog

Two Line Element Set (TLE):
1  4741U 70025CQ  24110.16202395  .00000036  00000-0  39123-3 0  9996
2  4741 100.2880   1.7026 0787247 270.6157 255.0112 11.94443666355458
Source of the keplerian elements: AFSPC